Time,TemperatureF,DewpointF,PressureIn,WindDirection,WindDirectionDegrees,WindSpeedMPH,WindSpeedGustMPH,Humidity,HourlyPrecipIn,Conditions,Clouds,dailyrainin,SoftwareType,DateUTC
2013-01-31 00:02:00,35.1,33.5,27.70,South,180,0.0,2.5,94,0.00,,,0.00,WUHU216HW,2013-01-31 08:02:00,
2013-01-31 00:07:00,35.1,33.5,27.70,SSW,203,2.5,2.5,94,0.00,,,0.00,WUHU216HW,2013-01-31 08:07:00,
2013-01-31 00:12:00,35.1,33.5,27.70,SSW,203,0.2,2.5,94,0.00,,,0.00,WUHU216HW,2013-01-31 08:12:00,
2013-01-31 00:17:00,35.1,33.5,27.71,SSW,203,0.4,1.1,94,0.00,,,0.00,WUHU216HW,2013-01-31 08:17:00,
2013-01-31 00:22:00,35.1,33.5,27.71,SSW,203,0.4,1.1,94,0.00,,,0.00,WUHU216HW,2013-01-31 08:22:00,
2013-01-31 00:27:00,35.1,33.5,27.71,SSE,158,0.4,1.1,94,0.00,,,0.00,WUHU216HW,2013-01-31 08:27:00,
2013-01-31 00:32:00,34.9,33.3,27.71,North,0,0.4,0.4,94,0.00,,,0.00,WUHU216HW,2013-01-31 08:32:00,
2013-01-31 00:37:00,35.1,33.5,27.71,WSW,248,0.0,0.4,94,0.00,,,0.00,WUHU216HW,2013-01-31 08:37:00,
2013-01-31 00:42:00,34.9,33.6,27.71,SE,135,0.0,0.4,95,0.00,,,0.00,WUHU216HW,2013-01-31 08:42:00,
2013-01-31 00:47:00,34.9,33.6,27.71,SSW,203,1.8,1.8,95,0.00,,,0.00,WUHU216HW,2013-01-31 08:47:00,
2013-01-31 00:52:00,34.9,33.6,27.71,South,180,0.4,1.8,95,0.00,,,0.00,WUHU216HW,2013-01-31 08:52:00,
2013-01-31 00:57:00,34.9,33.6,27.71,NW,315,0.0,1.3,95,0.00,,,0.00,WUHU216HW,2013-01-31 08:57:00,
2013-01-31 01:02:00,34.9,33.3,27.71,East,90,1.8,1.8,94,0.00,,,0.00,WUHU216HW,2013-01-31 09:02:00,
2013-01-31 01:07:00,34.9,33.6,27.71,SE,135,1.1,1.8,95,0.00,,,0.00,WUHU216HW,2013-01-31 09:07:00,
2013-01-31 01:12:00,34.9,33.6,27.72,SSW,203,0.0,1.1,95,0.00,,,0.00,WUHU216HW,2013-01-31 09:12:00,
2013-01-31 01:17:00,34.9,33.6,27.72,SSE,158,0.7,1.1,95,0.00,,,0.00,WUHU216HW,2013-01-31 09:17:00,
2013-01-31 01:22:00,34.9,33.6,27.71,East,90,0.4,0.9,95,0.00,,,0.00,WUHU216HW,2013-01-31 09:22:00,
2013-01-31 01:27:00,34.9,33.6,27.71,South,180,0.2,0.4,95,0.00,,,0.00,WUHU216HW,2013-01-31 09:27:00,
2013-01-31 01:32:00,34.9,33.6,27.71,SE,135,0.7,1.1,95,0.00,,,0.00,WUHU216HW,2013-01-31 09:32:00,
2013-01-31 01:37:00,34.9,33.6,27.71,SSE,158,0.9,1.6,95,0.00,,,0.00,WUHU216HW,2013-01-31 09:37:00,
2013-01-31 01:42:00,34.9,33.6,27.72,ESE,113,0.4,1.6,95,0.00,,,0.00,WUHU216HW,2013-01-31 09:42:00,
2013-01-31 01:47:00,34.9,33.6,27.72,South,180,0.9,1.6,95,0.00,,,0.00,WUHU216HW,2013-01-31 09:47:00,
2013-01-31 01:52:00,34.9,33.6,27.71,SSW,203,0.7,1.6,95,0.00,,,0.00,WUHU216HW,2013-01-31 09:52:00,
2013-01-31 01:57:00,34.9,33.6,27.71,SSW,203,0.2,1.6,95,0.00,,,0.00,WUHU216HW,2013-01-31 09:57:00,
2013-01-31 02:02:00,34.7,33.4,27.71,SSE,158,0.4,0.9,95,0.00,,,0.00,WUHU216HW,2013-01-31 10:02:00,
2013-01-31 02:07:00,34.7,33.4,27.71,SSW,203,0.4,0.4,95,0.00,,,0.00,WUHU216HW,2013-01-31 10:07:00,
2013-01-31 02:12:00,34.9,33.6,27.70,South,180,1.1,1.1,95,0.00,,,0.00,WUHU216HW,2013-01-31 10:12:00,
2013-01-31 02:17:00,34.9,33.6,27.70,South,180,0.9,1.3,95,0.00,,,0.00,WUHU216HW,2013-01-31 10:17:00,
2013-01-31 02:22:00,34.9,33.6,27.70,South,180,0.9,1.3,95,0.00,,,0.00,WUHU216HW,2013-01-31 10:22:00,
2013-01-31 02:27:00,34.9,33.6,27.70,South,180,1.1,1.3,95,0.00,,,0.00,WUHU216HW,2013-01-31 10:27:00,
2013-01-31 02:32:00,34.9,33.6,27.70,SSW,203,0.0,1.3,95,0.00,,,0.00,WUHU216HW,2013-01-31 10:32:00,
2013-01-31 02:37:00,34.9,33.6,27.70,SW,225,0.2,0.9,95,0.00,,,0.00,WUHU216HW,2013-01-31 10:37:00,
2013-01-31 02:42:00,34.9,33.6,27.70,SE,135,0.7,0.9,95,0.00,,,0.00,WUHU216HW,2013-01-31 10:42:00,
2013-01-31 02:47:00,34.9,33.6,27.71,SE,135,1.1,1.6,95,0.00,,,0.00,WUHU216HW,2013-01-31 10:47:00,
2013-01-31 02:52:00,34.9,33.6,27.71,SE,135,0.9,1.6,95,0.00,,,0.00,WUHU216HW,2013-01-31 10:52:00,
2013-01-31 02:57:00,34.9,33.6,27.71,SSE,158,0.2,1.8,95,0.00,,,0.00,WUHU216HW,2013-01-31 10:57:00,
2013-01-31 03:02:00,34.9,33.6,27.71,SE,135,0.7,2.5,95,0.00,,,0.00,WUHU216HW,2013-01-31 11:02:00,
2013-01-31 03:07:00,34.9,33.6,27.71,SE,135,0.0,2.5,95,0.00,,,0.00,WUHU216HW,2013-01-31 11:07:00,
2013-01-31 03:12:00,34.9,33.6,27.71,SSW,203,1.1,2.2,95,0.00,,,0.00,WUHU216HW,2013-01-31 11:12:00,
2013-01-31 03:17:00,35.1,33.8,27.71,SSW,203,0.9,2.2,95,0.00,,,0.00,WUHU216HW,2013-01-31 11:17:00,
2013-01-31 03:22:00,35.1,33.8,27.71,SE,135,1.6,2.0,95,0.00,,,0.00,WUHU216HW,2013-01-31 11:22:00,
2013-01-31 03:27:00,35.1,33.8,27.71,SSW,203,1.8,2.0,95,0.00,,,0.00,WUHU216HW,2013-01-31 11:27:00,
2013-01-31 03:32:00,35.1,33.8,27.71,SSW,203,1.8,2.2,95,0.00,,,0.00,WUHU216HW,2013-01-31 11:32:00,
2013-01-31 03:37:00,35.1,33.8,27.71,SE,135,0.7,2.2,95,0.00,,,0.00,WUHU216HW,2013-01-31 11:37:00,
2013-01-31 03:42:00,35.1,33.8,27.71,South,180,1.1,1.8,95,0.00,,,0.00,WUHU216HW,2013-01-31 11:42:00,
2013-01-31 03:47:00,35.1,33.8,27.71,SW,225,0.0,1.8,95,0.00,,,0.00,WUHU216HW,2013-01-31 11:47:00,
2013-01-31 03:52:00,35.1,33.8,27.71,South,180,0.9,1.1,95,0.00,,,0.00,WUHU216HW,2013-01-31 11:52:00,
2013-01-31 03:57:00,35.1,33.8,27.71,South,180,0.4,1.3,95,0.00,,,0.00,WUHU216HW,2013-01-31 11:57:00,
2013-01-31 04:02:00,34.9,33.6,27.71,ESE,113,0.4,1.3,95,0.00,,,0.00,WUHU216HW,2013-01-31 12:02:00,
2013-01-31 04:07:00,35.1,33.8,27.71,South,180,1.6,1.6,95,0.00,,,0.00,WUHU216HW,2013-01-31 12:07:00,
2013-01-31 04:12:00,35.1,33.8,27.71,SSE,158,0.0,1.6,95,0.00,,,0.00,WUHU216HW,2013-01-31 12:12:00,
2013-01-31 04:17:00,35.1,33.8,27.71,SSE,158,1.1,1.6,95,0.00,,,0.00,WUHU216HW,2013-01-31 12:17:00,
2013-01-31 04:22:00,35.1,33.8,27.71,South,180,1.3,1.3,95,0.00,,,0.00,WUHU216HW,2013-01-31 12:22:00,
2013-01-31 04:27:00,35.1,33.8,27.71,SSW,203,1.6,1.6,95,0.00,,,0.00,WUHU216HW,2013-01-31 12:27:00,
2013-01-31 04:32:00,35.1,33.8,27.71,SE,135,1.1,2.2,95,0.00,,,0.00,WUHU216HW,2013-01-31 12:32:00,
2013-01-31 04:37:00,35.1,33.8,27.71,SSW,203,1.1,2.2,95,0.00,,,0.00,WUHU216HW,2013-01-31 12:37:00,
2013-01-31 04:42:00,35.1,33.8,27.71,SSW,203,0.7,1.1,95,0.00,,,0.00,WUHU216HW,2013-01-31 12:42:00,
2013-01-31 04:47:00,35.1,33.8,27.72,SSE,158,0.7,2.2,95,0.00,,,0.00,WUHU216HW,2013-01-31 12:47:00,
2013-01-31 04:52:00,35.1,33.8,27.72,SSE,158,0.4,2.2,95,0.00,,,0.00,WUHU216HW,2013-01-31 12:52:00,
2013-01-31 04:57:00,35.1,33.8,27.72,South,180,0.4,1.1,95,0.00,,,0.00,WUHU216HW,2013-01-31 12:57:00,
2013-01-31 05:02:00,35.1,33.8,27.71,South,180,1.1,1.1,95,0.00,,,0.00,WUHU216HW,2013-01-31 13:02:00,
2013-01-31 05:07:00,35.1,33.8,27.72,SE,135,0.0,1.1,95,0.00,,,0.00,WUHU216HW,2013-01-31 13:07:00,
2013-01-31 05:12:00,35.1,33.8,27.72,ESE,113,0.4,0.4,95,0.00,,,0.00,WUHU216HW,2013-01-31 13:12:00,
2013-01-31 05:17:00,35.1,33.8,27.72,SE,135,0.4,0.9,95,0.00,,,0.00,WUHU216HW,2013-01-31 13:17:00,
2013-01-31 05:22:00,35.3,34.2,27.71,SE,135,0.2,1.8,96,0.00,,,0.00,WUHU216HW,2013-01-31 13:22:00,
2013-01-31 05:27:00,35.3,34.2,27.72,SSE,158,0.0,1.8,96,0.00,,,0.00,WUHU216HW,2013-01-31 13:27:00,
2013-01-31 05:32:00,35.1,33.8,27.72,SSW,203,0.0,1.1,95,0.00,,,0.00,WUHU216HW,2013-01-31 13:32:00,
2013-01-31 05:37:00,34.9,33.6,27.71,ESE,113,0.0,0.4,95,0.00,,,0.00,WUHU216HW,2013-01-31 13:37:00,
2013-01-31 05:42:00,34.9,33.6,27.71,ESE,113,0.0,0.4,95,0.00,,,0.00,WUHU216HW,2013-01-31 13:42:00,
2013-01-31 05:47:00,35.1,33.8,27.71,SE,135,0.2,0.7,95,0.00,,,0.00,WUHU216HW,2013-01-31 13:47:00,
2013-01-31 05:52:00,34.9,33.6,27.71,East,90,0.4,0.7,95,0.00,,,0.00,WUHU216HW,2013-01-31 13:52:00,
2013-01-31 05:57:00,35.1,33.8,27.70,East,90,0.0,0.4,95,0.00,,,0.00,WUHU216HW,2013-01-31 13:57:00,
2013-01-31 06:02:00,34.9,33.6,27.70,ENE,68,0.0,0.4,95,0.00,,,0.00,WUHU216HW,2013-01-31 14:02:00,
2013-01-31 06:07:00,34.9,33.6,27.70,ENE,68,0.0,0.0,95,0.00,,,0.00,WUHU216HW,2013-01-31 14:07:00,
2013-01-31 06:12:00,34.7,33.4,27.70,ENE,68,0.0,0.0,95,0.00,,,0.00,WUHU216HW,2013-01-31 14:12:00,
2013-01-31 06:17:00,34.7,33.4,27.70,SE,135,0.4,0.4,95,0.00,,,0.00,WUHU216HW,2013-01-31 14:17:00,
2013-01-31 06:22:00,34.9,33.6,27.70,SE,135,0.2,0.4,95,0.00,,,0.00,WUHU216HW,2013-01-31 14:22:00,
2013-01-31 06:27:00,34.9,33.6,27.70,SE,135,0.2,0.9,95,0.00,,,0.00,WUHU216HW,2013-01-31 14:27:00,
2013-01-31 06:32:00,34.9,33.6,27.70,ESE,113,0.0,0.9,95,0.00,,,0.00,WUHU216HW,2013-01-31 14:32:00,
2013-01-31 06:37:00,35.1,33.8,27.70,ESE,113,0.7,1.1,95,0.00,,,0.00,WUHU216HW,2013-01-31 14:37:00,
2013-01-31 06:42:00,35.1,33.8,27.71,ESE,113,0.2,1.1,95,0.00,,,0.00,WUHU216HW,2013-01-31 14:42:00,
2013-01-31 06:47:00,35.1,33.8,27.71,ESE,113,0.0,0.7,95,0.00,,,0.00,WUHU216HW,2013-01-31 14:47:00,
2013-01-31 06:52:00,35.1,33.8,27.71,ESE,113,0.0,0.4,95,0.00,,,0.00,WUHU216HW,2013-01-31 14:52:00,
2013-01-31 06:57:00,34.9,33.6,27.72,ESE,113,0.0,0.4,95,0.00,,,0.00,WUHU216HW,2013-01-31 14:57:00,
2013-01-31 07:02:00,34.9,33.6,27.72,ENE,68,0.4,0.4,95,0.00,,,0.00,WUHU216HW,2013-01-31 15:02:00,
2013-01-31 07:07:00,34.7,33.4,27.72,ENE,68,0.0,0.4,95,0.00,,,0.00,WUHU216HW,2013-01-31 15:07:00,
2013-01-31 07:12:00,34.7,33.4,27.73,ENE,68,0.0,0.0,95,0.00,,,0.00,WUHU216HW,2013-01-31 15:12:00,
2013-01-31 07:17:00,34.7,33.4,27.73,ESE,113,0.9,1.6,95,0.00,,,0.00,WUHU216HW,2013-01-31 15:17:00,
2013-01-31 07:22:00,34.7,33.4,27.72,ESE,113,0.0,1.6,95,0.00,,,0.00,WUHU216HW,2013-01-31 15:22:00,
2013-01-31 07:27:00,34.9,33.6,27.72,East,90,0.4,1.1,95,0.00,,,0.00,WUHU216HW,2013-01-31 15:27:00,
2013-01-31 07:32:00,34.9,33.6,27.71,ENE,68,0.0,0.7,95,0.00,,,0.00,WUHU216HW,2013-01-31 15:32:00,
2013-01-31 07:37:00,34.7,33.4,27.71,North,0,0.0,0.2,95,0.00,,,0.00,WUHU216HW,2013-01-31 15:37:00,
2013-01-31 07:42:00,34.6,33.2,27.71,ESE,113,0.9,0.9,95,0.00,,,0.00,WUHU216HW,2013-01-31 15:42:00,
2013-01-31 07:47:00,34.7,33.4,27.71,SSE,158,0.4,1.1,95,0.00,,,0.00,WUHU216HW,2013-01-31 15:47:00,
2013-01-31 07:52:00,34.9,33.6,27.71,ESE,113,0.2,1.6,95,0.00,,,0.00,WUHU216HW,2013-01-31 15:52:00,
2013-01-31 07:57:00,34.9,33.6,27.70,ESE,113,0.0,1.6,95,0.00,,,0.00,WUHU216HW,2013-01-31 15:57:00,
2013-01-31 08:02:00,35.3,34.2,27.70,ESE,113,0.4,0.9,96,0.00,,,0.00,WUHU216HW,2013-01-31 16:02:00,
2013-01-31 08:07:00,35.3,34.2,27.71,SE,135,0.9,1.1,96,0.00,,,0.00,WUHU216HW,2013-01-31 16:07:00,
2013-01-31 08:12:00,35.5,34.4,27.71,SE,135,0.0,1.1,96,0.00,,,0.00,WUHU216HW,2013-01-31 16:12:00,
2013-01-31 08:17:00,35.5,34.4,27.71,SE,135,0.0,0.4,96,0.00,,,0.00,WUHU216HW,2013-01-31 16:17:00,
2013-01-31 08:22:00,35.5,34.4,27.71,South,180,0.0,0.0,96,0.00,,,0.00,WUHU216HW,2013-01-31 16:22:00,
2013-01-31 08:27:00,35.6,34.6,27.72,ESE,113,0.0,0.2,96,0.00,,,0.00,WUHU216HW,2013-01-31 16:27:00,
2013-01-31 08:32:00,36.0,34.9,27.72,ESE,113,0.4,1.1,96,0.00,,,0.00,WUHU216HW,2013-01-31 16:32:00,
2013-01-31 08:37:00,36.0,34.9,27.72,SE,135,0.4,1.1,96,0.00,,,0.00,WUHU216HW,2013-01-31 16:37:00,
2013-01-31 08:42:00,36.0,34.9,27.72,SE,135,0.0,1.1,96,0.00,,,0.00,WUHU216HW,2013-01-31 16:42:00,
2013-01-31 08:47:00,36.2,35.1,27.72,ESE,113,0.9,1.1,96,0.00,,,0.00,WUHU216HW,2013-01-31 16:47:00,
2013-01-31 08:52:00,36.4,35.3,27.72,SE,135,0.9,1.1,96,0.00,,,0.00,WUHU216HW,2013-01-31 16:52:00,
2013-01-31 08:57:00,36.5,35.5,27.72,ESE,113,0.0,1.1,96,0.00,,,0.00,WUHU216HW,2013-01-31 16:57:00,
2013-01-31 09:02:00,36.7,35.6,27.72,ESE,113,0.4,1.1,96,0.00,,,0.00,WUHU216HW,2013-01-31 17:02:00,
2013-01-31 09:07:00,36.9,35.8,27.72,South,180,0.7,1.1,96,0.00,,,0.00,WUHU216HW,2013-01-31 17:07:00,
2013-01-31 09:12:00,36.9,35.8,27.72,South,180,0.7,1.1,96,0.00,,,0.00,WUHU216HW,2013-01-31 17:12:00,
2013-01-31 09:17:00,36.9,35.8,27.72,SSW,203,1.1,1.1,96,0.00,,,0.00,WUHU216HW,2013-01-31 17:17:00,
2013-01-31 09:22:00,36.9,35.8,27.73,SSW,203,1.8,1.8,96,0.00,,,0.00,WUHU216HW,2013-01-31 17:22:00,
2013-01-31 09:27:00,36.9,35.8,27.73,South,180,1.6,2.0,96,0.00,,,0.00,WUHU216HW,2013-01-31 17:27:00,
2013-01-31 09:32:00,37.1,36.0,27.73,South,180,0.7,2.0,96,0.00,,,0.00,WUHU216HW,2013-01-31 17:32:00,
2013-01-31 09:37:00,37.1,36.0,27.73,South,180,0.9,2.0,96,0.00,,,0.00,WUHU216HW,2013-01-31 17:37:00,
2013-01-31 09:42:00,37.3,36.2,27.72,SSW,203,3.4,3.4,96,0.00,,,0.00,WUHU216HW,2013-01-31 17:42:00,
2013-01-31 09:47:00,37.3,36.2,27.72,SSW,203,3.1,3.6,96,0.00,,,0.00,WUHU216HW,2013-01-31 17:47:00,
2013-01-31 09:52:00,37.3,36.2,27.71,South,180,3.8,3.8,96,0.00,,,0.00,WUHU216HW,2013-01-31 17:52:00,
2013-01-31 09:57:00,37.4,36.4,27.71,SSW,203,2.0,3.8,96,0.00,,,0.00,WUHU216HW,2013-01-31 17:57:00,
2013-01-31 10:02:00,37.4,36.1,27.71,SSE,158,1.1,2.5,95,0.00,,,0.00,WUHU216HW,2013-01-31 18:02:00,
2013-01-31 10:07:00,37.4,36.1,27.71,SSW,203,1.6,3.1,95,0.00,,,0.00,WUHU216HW,2013-01-31 18:07:00,
2013-01-31 10:12:00,37.4,36.1,27.71,SW,225,0.9,3.1,95,0.00,,,0.00,WUHU216HW,2013-01-31 18:12:00,
2013-01-31 10:17:00,37.6,36.3,27.71,SSE,158,1.6,2.2,95,0.00,,,0.00,WUHU216HW,2013-01-31 18:17:00,
2013-01-31 10:22:00,37.8,36.2,27.71,SSW,203,3.1,3.1,94,0.00,,,0.00,WUHU216HW,2013-01-31 18:22:00,
2013-01-31 10:27:00,37.8,36.2,27.71,SSW,203,1.3,3.1,94,0.00,,,0.00,WUHU216HW,2013-01-31 18:27:00,
2013-01-31 10:32:00,37.8,36.2,27.71,SSW,203,1.1,2.5,94,0.00,,,0.00,WUHU216HW,2013-01-31 18:32:00,
2013-01-31 10:37:00,38.0,36.4,27.71,WSW,248,1.8,2.5,94,0.00,,,0.00,WUHU216HW,2013-01-31 18:37:00,
2013-01-31 10:42:00,38.0,36.4,27.71,SW,225,1.6,1.8,94,0.00,,,0.00,WUHU216HW,2013-01-31 18:42:00,
2013-01-31 10:47:00,38.2,36.3,27.71,WSW,248,2.5,2.9,93,0.00,,,0.00,WUHU216HW,2013-01-31 18:47:00,
2013-01-31 10:52:00,38.2,36.5,27.72,SW,225,0.9,2.9,94,0.00,,,0.00,WUHU216HW,2013-01-31 18:52:00,
2013-01-31 10:57:00,38.2,36.3,27.72,SSW,203,1.3,2.5,93,0.00,,,0.00,WUHU216HW,2013-01-31 18:57:00,
2013-01-31 11:02:00,38.0,36.1,27.72,SW,225,1.6,2.2,93,0.00,,,0.00,WUHU216HW,2013-01-31 19:02:00,
2013-01-31 11:07:00,38.0,36.1,27.72,SSW,203,2.2,3.1,93,0.00,,,0.00,WUHU216HW,2013-01-31 19:07:00,
2013-01-31 11:12:00,38.0,36.1,27.72,SE,135,1.8,3.1,93,0.00,,,0.00,WUHU216HW,2013-01-31 19:12:00,
2013-01-31 11:17:00,38.0,36.1,27.72,SW,225,1.1,2.5,93,0.00,,,0.00,WUHU216HW,2013-01-31 19:17:00,
2013-01-31 11:22:00,38.0,36.1,27.72,SSW,203,2.9,2.9,93,0.00,,,0.00,WUHU216HW,2013-01-31 19:22:00,
2013-01-31 11:27:00,38.0,36.1,27.72,SW,225,4.0,4.0,93,0.00,,,0.00,WUHU216HW,2013-01-31 19:27:00,
2013-01-31 11:32:00,38.2,36.3,27.71,SSW,203,1.8,4.0,93,0.00,,,0.00,WUHU216HW,2013-01-31 19:32:00,
2013-01-31 11:37:00,38.2,36.3,27.71,SE,135,0.7,2.2,93,0.00,,,0.00,WUHU216HW,2013-01-31 19:37:00,
2013-01-31 11:42:00,38.3,36.2,27.71,SSW,203,2.0,2.0,92,0.00,,,0.00,WUHU216HW,2013-01-31 19:42:00,
2013-01-31 11:47:00,38.7,36.5,27.71,SW,225,1.3,2.0,92,0.00,,,0.00,WUHU216HW,2013-01-31 19:47:00,
2013-01-31 11:52:00,39.1,37.2,27.71,SW,225,1.3,2.0,93,0.00,,,0.00,WUHU216HW,2013-01-31 19:52:00,
2013-01-31 11:57:00,39.4,37.3,27.71,SW,225,1.1,1.6,92,0.00,,,0.00,WUHU216HW,2013-01-31 19:57:00,
2013-01-31 12:02:00,40.0,37.5,27.70,SSW,203,2.2,2.5,91,0.00,,,0.00,WUHU216HW,2013-01-31 20:02:00,
2013-01-31 12:07:00,40.0,37.3,27.70,SSE,158,1.6,2.5,90,0.00,,,0.00,WUHU216HW,2013-01-31 20:07:00,
2013-01-31 12:12:00,39.8,37.4,27.70,SSW,203,0.4,2.0,91,0.00,,,0.00,WUHU216HW,2013-01-31 20:12:00,
2013-01-31 12:17:00,39.8,37.4,27.70,SSW,203,0.2,1.6,91,0.00,,,0.00,WUHU216HW,2013-01-31 20:17:00,
2013-01-31 12:22:00,40.0,37.3,27.71,SSW,203,1.1,1.6,90,0.00,,,0.00,WUHU216HW,2013-01-31 20:22:00,
2013-01-31 12:27:00,40.3,37.6,27.71,SSE,158,0.2,1.1,90,0.00,,,0.00,WUHU216HW,2013-01-31 20:27:00,
2013-01-31 12:32:00,40.5,37.8,27.71,SW,225,0.4,0.9,90,0.00,,,0.00,WUHU216HW,2013-01-31 20:32:00,
2013-01-31 12:37:00,40.7,37.7,27.71,SE,135,1.1,1.3,89,0.00,,,0.00,WUHU216HW,2013-01-31 20:37:00,
2013-01-31 12:42:00,40.7,37.4,27.72,SW,225,0.9,1.8,88,0.00,,,0.00,WUHU216HW,2013-01-31 20:42:00,
2013-01-31 12:47:00,40.9,37.3,27.72,SSW,203,1.6,1.8,87,0.00,,,0.00,WUHU216HW,2013-01-31 20:47:00,
2013-01-31 12:52:00,40.9,37.3,27.72,East,90,3.4,3.4,87,0.00,,,0.00,WUHU216HW,2013-01-31 20:52:00,
2013-01-31 12:57:00,40.7,37.1,27.72,WSW,248,1.8,3.4,87,0.00,,,0.00,WUHU216HW,2013-01-31 20:57:00,
2013-01-31 13:02:00,40.7,37.1,27.72,SSW,203,4.0,4.0,87,0.00,,,0.00,WUHU216HW,2013-01-31 21:02:00,
2013-01-31 13:07:00,40.9,37.3,27.72,SSW,203,0.7,4.0,87,0.00,,,0.00,WUHU216HW,2013-01-31 21:07:00,
2013-01-31 13:12:00,40.9,37.3,27.72,SSE,158,1.1,2.5,87,0.00,,,0.00,WUHU216HW,2013-01-31 21:12:00,
2013-01-31 13:17:00,41.0,37.5,27.71,SW,225,2.5,2.5,87,0.00,,,0.00,WUHU216HW,2013-01-31 21:17:00,
2013-01-31 13:22:00,40.9,37.3,27.71,South,180,0.7,2.5,87,0.00,,,0.00,WUHU216HW,2013-01-31 21:22:00,
2013-01-31 13:27:00,40.7,37.4,27.71,SW,225,2.2,2.7,88,0.00,,,0.00,WUHU216HW,2013-01-31 21:27:00,
2013-01-31 13:32:00,40.7,37.4,27.71,SW,225,2.2,2.7,88,0.00,,,0.00,WUHU216HW,2013-01-31 21:32:00,
2013-01-31 13:37:00,40.5,37.5,27.70,SSW,203,1.8,2.5,89,0.00,,,0.00,WUHU216HW,2013-01-31 21:37:00,
2013-01-31 13:42:00,40.5,37.5,27.70,SSW,203,0.9,1.8,89,0.00,,,0.00,WUHU216HW,2013-01-31 21:42:00,
2013-01-31 13:47:00,40.5,37.5,27.70,SSW,203,1.3,1.8,89,0.00,,,0.00,WUHU216HW,2013-01-31 21:47:00,
2013-01-31 13:52:00,40.7,37.7,27.70,SSW,203,1.6,1.6,89,0.00,,,0.00,WUHU216HW,2013-01-31 21:52:00,
2013-01-31 13:57:00,40.7,37.7,27.71,SE,135,1.8,1.8,89,0.00,,,0.00,WUHU216HW,2013-01-31 21:57:00,
2013-01-31 14:02:00,40.9,37.5,27.71,South,180,1.8,2.5,88,0.00,,,0.00,WUHU216HW,2013-01-31 22:02:00,
2013-01-31 14:07:00,41.0,37.7,27.71,SSW,203,1.6,2.5,88,0.00,,,0.00,WUHU216HW,2013-01-31 22:07:00,
2013-01-31 14:12:00,41.2,37.9,27.72,SW,225,0.7,2.2,88,0.00,,,0.00,WUHU216HW,2013-01-31 22:12:00,
2013-01-31 14:17:00,41.2,37.9,27.71,SSW,203,1.3,2.5,88,0.00,,,0.00,WUHU216HW,2013-01-31 22:17:00,
2013-01-31 14:22:00,41.2,37.9,27.72,SSW,203,1.3,2.5,88,0.00,,,0.00,WUHU216HW,2013-01-31 22:22:00,
2013-01-31 14:27:00,41.0,37.7,27.72,SSW,203,0.4,1.8,88,0.00,,,0.00,WUHU216HW,2013-01-31 22:27:00,
2013-01-31 14:32:00,41.4,38.1,27.72,SSW,203,1.1,1.8,88,0.00,,,0.00,WUHU216HW,2013-01-31 22:32:00,
2013-01-31 14:37:00,41.8,38.2,27.72,South,180,1.3,1.3,87,0.00,,,0.00,WUHU216HW,2013-01-31 22:37:00,
2013-01-31 14:42:00,41.9,38.0,27.72,SW,225,2.7,2.7,86,0.00,,,0.00,WUHU216HW,2013-01-31 22:42:00,
2013-01-31 14:47:00,41.6,38.0,27.72,SW,225,3.1,3.1,87,0.00,,,0.00,WUHU216HW,2013-01-31 22:47:00,
2013-01-31 14:52:00,41.4,37.8,27.72,SSW,203,1.1,3.1,87,0.00,,,0.00,WUHU216HW,2013-01-31 22:52:00,
2013-01-31 14:57:00,41.4,37.8,27.71,SSW,203,2.0,2.7,87,0.00,,,0.00,WUHU216HW,2013-01-31 22:57:00,
2013-01-31 15:02:00,41.4,37.8,27.71,SSW,203,3.6,3.8,87,0.00,,,0.00,WUHU216HW,2013-01-31 23:02:00,
2013-01-31 15:07:00,41.2,37.6,27.71,SW,225,1.1,3.8,87,0.00,,,0.00,WUHU216HW,2013-01-31 23:07:00,
2013-01-31 15:12:00,41.0,37.5,27.71,SW,225,2.5,3.8,87,0.00,,,0.00,WUHU216HW,2013-01-31 23:12:00,
2013-01-31 15:17:00,41.0,37.5,27.70,South,180,1.8,3.1,87,0.00,,,0.00,WUHU216HW,2013-01-31 23:17:00,
2013-01-31 15:22:00,40.9,37.3,27.70,SSW,203,2.7,3.1,87,0.00,,,0.00,WUHU216HW,2013-01-31 23:22:00,
2013-01-31 15:27:00,40.9,37.3,27.70,SSW,203,2.2,3.1,87,0.00,,,0.00,WUHU216HW,2013-01-31 23:27:00,
2013-01-31 15:32:00,40.7,37.1,27.70,SW,225,1.3,2.2,87,0.00,,,0.00,WUHU216HW,2013-01-31 23:32:00,
2013-01-31 15:37:00,40.5,36.9,27.71,SW,225,2.0,2.2,87,0.00,,,0.00,WUHU216HW,2013-01-31 23:37:00,
2013-01-31 15:42:00,40.3,36.7,27.71,SW,225,0.7,2.2,87,0.00,,,0.00,WUHU216HW,2013-01-31 23:42:00,
2013-01-31 15:47:00,40.3,36.7,27.71,SSW,203,0.2,1.6,87,0.00,,,0.00,WUHU216HW,2013-01-31 23:47:00,
2013-01-31 15:52:00,40.1,36.8,27.71,SW,225,0.0,1.1,88,0.00,,,0.00,WUHU216HW,2013-01-31 23:52:00,
2013-01-31 15:57:00,40.0,36.6,27.71,SW,225,0.0,0.7,88,0.00,,,0.00,WUHU216HW,2013-01-31 23:57:00,
2013-01-31 16:02:00,40.0,36.6,27.71,SW,225,0.0,0.0,88,0.00,,,0.00,WUHU216HW,2013-02-01 00:02:00,
2013-01-31 16:07:00,39.6,36.4,27.71,SW,225,0.0,0.4,88,0.00,,,0.00,WUHU216HW,2013-02-01 00:07:00,
2013-01-31 16:12:00,39.2,36.0,27.72,SW,225,0.0,0.4,88,0.00,,,0.00,WUHU216HW,2013-02-01 00:12:00,
2013-01-31 16:17:00,39.2,36.3,27.72,SW,225,0.0,0.0,89,0.00,,,0.00,WUHU216HW,2013-02-01 00:17:00,
2013-01-31 16:22:00,39.1,36.1,27.72,SW,225,0.0,0.0,89,0.00,,,0.00,WUHU216HW,2013-02-01 00:22:00,
2013-01-31 16:27:00,38.9,35.9,27.72,East,90,0.0,0.0,89,0.00,,,0.00,WUHU216HW,2013-02-01 00:27:00,
2013-01-31 16:32:00,38.7,35.7,27.72,East,90,0.0,0.0,89,0.00,,,0.00,WUHU216HW,2013-02-01 00:32:00,
2013-01-31 16:37:00,38.5,35.6,27.71,SE,135,0.4,0.4,89,0.00,,,0.00,WUHU216HW,2013-02-01 00:37:00,
2013-01-31 16:42:00,38.2,35.5,27.71,East,90,0.0,0.4,90,0.00,,,0.00,WUHU216HW,2013-02-01 00:42:00,
2013-01-31 16:47:00,38.2,35.5,27.71,SE,135,0.7,0.7,90,0.00,,,0.00,WUHU216HW,2013-02-01 00:47:00,
2013-01-31 16:52:00,38.0,35.6,27.70,SE,135,0.4,0.7,91,0.00,,,0.00,WUHU216HW,2013-02-01 00:52:00,
2013-01-31 16:57:00,38.0,35.6,27.70,ESE,113,0.0,0.4,91,0.00,,,0.00,WUHU216HW,2013-02-01 00:57:00,
2013-01-31 17:02:00,37.8,35.1,27.70,NNE,23,0.0,0.4,90,0.00,,,0.00,WUHU216HW,2013-02-01 01:02:00,
2013-01-31 17:07:00,37.4,35.0,27.70,NNE,23,0.0,0.0,91,0.00,,,0.00,WUHU216HW,2013-02-01 01:07:00,
2013-01-31 17:12:00,37.1,34.4,27.69,ENE,68,0.0,0.7,90,0.00,,,0.00,WUHU216HW,2013-02-01 01:12:00,
2013-01-31 17:17:00,36.9,34.5,27.70,NE,45,0.0,0.7,91,0.00,,,0.00,WUHU216HW,2013-02-01 01:17:00,
2013-01-31 17:22:00,36.5,34.1,27.70,NE,45,0.0,0.0,91,0.00,,,0.00,WUHU216HW,2013-02-01 01:22:00,
2013-01-31 17:27:00,36.4,33.7,27.70,NE,45,0.0,0.0,90,0.00,,,0.00,WUHU216HW,2013-02-01 01:27:00,
2013-01-31 17:32:00,36.2,33.8,27.70,East,90,0.0,0.4,91,0.00,,,0.00,WUHU216HW,2013-02-01 01:32:00,
2013-01-31 17:37:00,36.0,33.6,27.70,East,90,0.0,0.4,91,0.00,,,0.00,WUHU216HW,2013-02-01 01:37:00,
2013-01-31 17:42:00,35.8,33.4,27.70,ENE,68,0.0,0.4,91,0.00,,,0.00,WUHU216HW,2013-02-01 01:42:00,
2013-01-31 17:47:00,35.8,33.7,27.70,NE,45,0.4,0.4,92,0.00,,,0.00,WUHU216HW,2013-02-01 01:47:00,
2013-01-31 17:52:00,35.6,33.5,27.70,NE,45,0.4,0.4,92,0.00,,,0.00,WUHU216HW,2013-02-01 01:52:00,
2013-01-31 17:57:00,35.5,33.3,27.70,ENE,68,0.2,0.4,92,0.00,,,0.00,WUHU216HW,2013-02-01 01:57:00,
2013-01-31 18:02:00,35.5,33.3,27.70,SE,135,0.0,0.4,92,0.00,,,0.00,WUHU216HW,2013-02-01 02:02:00,
2013-01-31 18:07:00,35.5,33.3,27.70,ESE,113,0.2,0.9,92,0.00,,,0.00,WUHU216HW,2013-02-01 02:07:00,
2013-01-31 18:12:00,35.5,33.6,27.70,ESE,113,1.1,1.8,93,0.00,,,0.00,WUHU216HW,2013-02-01 02:12:00,
2013-01-31 18:17:00,35.6,33.8,27.69,ESE,113,0.0,1.8,93,0.00,,,0.00,WUHU216HW,2013-02-01 02:17:00,
2013-01-31 18:22:00,35.6,33.5,27.69,NE,45,0.0,1.1,92,0.00,,,0.00,WUHU216HW,2013-02-01 02:22:00,
2013-01-31 18:27:00,35.6,33.5,27.69,ENE,68,0.0,0.4,92,0.00,,,0.00,WUHU216HW,2013-02-01 02:27:00,
2013-01-31 18:32:00,35.5,33.6,27.69,ESE,113,0.4,0.4,93,0.00,,,0.00,WUHU216HW,2013-02-01 02:32:00,
2013-01-31 18:37:00,35.6,34.0,27.68,ESE,113,1.6,1.6,94,0.00,,,0.00,WUHU216HW,2013-02-01 02:37:00,
2013-01-31 18:42:00,36.0,34.1,27.68,SE,135,1.1,1.6,93,0.00,,,0.00,WUHU216HW,2013-02-01 02:42:00,
2013-01-31 18:47:00,36.4,34.7,27.68,ESE,113,0.9,1.6,94,0.00,,,0.00,WUHU216HW,2013-02-01 02:47:00,
2013-01-31 18:52:00,36.4,34.7,27.68,ESE,113,0.7,0.9,94,0.00,,,0.00,WUHU216HW,2013-02-01 02:52:00,
2013-01-31 18:57:00,36.5,34.9,27.68,SE,135,0.2,0.9,94,0.00,,,0.00,WUHU216HW,2013-02-01 02:57:00,
2013-01-31 19:02:00,36.7,35.1,27.68,SE,135,0.0,0.9,94,0.00,,,0.00,WUHU216HW,2013-02-01 03:02:00,
2013-01-31 19:07:00,36.7,35.1,27.68,SSE,158,0.4,0.4,94,0.01,,,0.01,WUHU216HW,2013-02-01 03:07:00,
2013-01-31 19:12:00,36.9,35.6,27.68,ESE,113,0.9,1.6,95,0.01,,,0.01,WUHU216HW,2013-02-01 03:12:00,
2013-01-31 19:17:00,37.1,35.7,27.68,SE,135,1.1,1.6,95,0.02,,,0.02,WUHU216HW,2013-02-01 03:17:00,
2013-01-31 19:22:00,37.4,35.8,27.68,ESE,113,1.1,1.1,94,0.02,,,0.02,WUHU216HW,2013-02-01 03:22:00,
2013-01-31 19:27:00,37.4,35.8,27.67,ESE,113,1.1,1.6,94,0.02,,,0.02,WUHU216HW,2013-02-01 03:27:00,
2013-01-31 19:32:00,37.4,35.8,27.68,SE,135,0.0,1.6,94,0.02,,,0.02,WUHU216HW,2013-02-01 03:32:00,
2013-01-31 19:38:00,37.3,35.6,27.68,ESE,113,0.0,0.9,94,0.02,,,0.02,WUHU216HW,2013-02-01 03:38:00,
2013-01-31 19:43:00,37.3,35.6,27.67,SE,135,0.9,0.9,94,0.02,,,0.02,WUHU216HW,2013-02-01 03:43:00,
2013-01-31 19:47:00,37.3,35.6,27.67,ESE,113,0.4,0.9,94,0.02,,,0.02,WUHU216HW,2013-02-01 03:47:00,
2013-01-31 19:53:00,37.3,35.6,27.67,ENE,68,0.7,0.7,94,0.02,,,0.02,WUHU216HW,2013-02-01 03:53:00,
2013-01-31 19:58:00,37.1,35.5,27.67,NNE,23,0.0,0.7,94,0.02,,,0.02,WUHU216HW,2013-02-01 03:58:00,
2013-01-31 20:03:00,36.9,35.3,27.67,ENE,68,0.0,0.2,94,0.01,,,0.02,WUHU216HW,2013-02-01 04:03:00,
2013-01-31 20:08:00,36.5,34.9,27.67,East,90,0.0,0.2,94,0.01,,,0.02,WUHU216HW,2013-02-01 04:08:00,
2013-01-31 20:13:00,36.5,34.9,27.67,NE,45,0.0,0.7,94,0.00,,,0.02,WUHU216HW,2013-02-01 04:13:00,
2013-01-31 20:18:00,36.2,34.6,27.67,NE,45,0.7,0.7,94,0.00,,,0.02,WUHU216HW,2013-02-01 04:18:00,
2013-01-31 20:23:00,35.8,34.2,27.67,NE,45,0.0,0.7,94,0.00,,,0.02,WUHU216HW,2013-02-01 04:23:00,
2013-01-31 20:28:00,35.6,34.0,27.67,ESE,113,1.1,1.1,94,0.00,,,0.02,WUHU216HW,2013-02-01 04:28:00,
2013-01-31 20:33:00,35.6,34.0,27.67,SE,135,0.7,1.1,94,0.00,,,0.02,WUHU216HW,2013-02-01 04:33:00,
2013-01-31 20:38:00,35.6,34.0,27.67,SE,135,0.2,1.1,94,0.00,,,0.02,WUHU216HW,2013-02-01 04:38:00,
2013-01-31 20:43:00,35.5,33.8,27.66,SE,135,0.9,1.1,94,0.00,,,0.02,WUHU216HW,2013-02-01 04:43:00,
2013-01-31 20:48:00,35.6,34.3,27.66,SE,135,0.4,0.9,95,0.00,,,0.02,WUHU216HW,2013-02-01 04:48:00,
2013-01-31 20:53:00,35.6,34.3,27.66,ESE,113,0.0,0.9,95,0.00,,,0.02,WUHU216HW,2013-02-01 04:53:00,
2013-01-31 20:58:00,35.5,33.8,27.66,NNE,23,0.0,0.9,94,0.00,,,0.02,WUHU216HW,2013-02-01 04:58:00,
2013-01-31 21:00:00,35.3,33.7,27.66,SE,135,0.4,0.4,94,0.00,,,0.02,WUHU216HW,2013-02-01 05:00:00,
2013-01-31 21:02:00,35.5,34.1,27.66,ESE,113,0.4,1.1,95,0.00,,,0.02,WUHU216HW,2013-02-01 05:02:00,
2013-01-31 21:03:00,35.5,34.1,27.66,ESE,113,0.4,1.1,95,0.00,,,0.02,WUHU216HW,2013-02-01 05:03:00,
2013-01-31 21:08:00,35.5,34.1,27.66,SSE,158,0.0,1.1,95,0.00,,,0.02,WUHU216HW,2013-02-01 05:08:00,
2013-01-31 21:13:00,35.6,34.3,27.66,SSE,158,0.4,1.1,95,0.00,,,0.02,WUHU216HW,2013-02-01 05:13:00,
2013-01-31 21:18:00,35.3,33.9,27.66,SSW,203,0.0,1.1,95,0.00,,,0.02,WUHU216HW,2013-02-01 05:18:00,
2013-01-31 21:23:00,35.3,33.9,27.66,SSE,158,0.0,0.4,95,0.00,,,0.02,WUHU216HW,2013-02-01 05:23:00,
2013-01-31 21:28:00,35.3,33.9,27.66,SSE,158,0.0,0.7,95,0.00,,,0.02,WUHU216HW,2013-02-01 05:28:00,
2013-01-31 21:33:00,35.3,33.9,27.66,ESE,113,0.7,0.7,95,0.00,,,0.02,WUHU216HW,2013-02-01 05:33:00,
2013-01-31 21:38:00,35.3,34.2,27.66,SE,135,0.2,0.7,96,0.00,,,0.02,WUHU216HW,2013-02-01 05:38:00,
2013-01-31 21:43:00,35.3,33.9,27.66,South,180,0.2,0.9,95,0.00,,,0.02,WUHU216HW,2013-02-01 05:43:00,
2013-01-31 21:48:00,35.5,34.1,27.66,South,180,0.2,0.9,95,0.00,,,0.02,WUHU216HW,2013-02-01 05:48:00,
2013-01-31 21:53:00,35.5,34.4,27.66,SE,135,0.7,1.1,96,0.00,,,0.02,WUHU216HW,2013-02-01 05:53:00,
2013-01-31 21:58:00,35.5,34.4,27.66,South,180,0.9,1.1,96,0.00,,,0.02,WUHU216HW,2013-02-01 05:58:00,
2013-01-31 22:03:00,35.6,34.6,27.65,SE,135,0.7,1.1,96,0.00,,,0.02,WUHU216HW,2013-02-01 06:03:00,
2013-01-31 22:08:00,35.6,34.6,27.65,SSE,158,0.4,0.9,96,0.00,,,0.02,WUHU216HW,2013-02-01 06:08:00,
2013-01-31 22:13:00,35.6,34.6,27.65,SE,135,0.4,0.9,96,0.00,,,0.02,WUHU216HW,2013-02-01 06:13:00,
2013-01-31 22:18:00,35.6,34.6,27.65,SSE,158,1.3,1.3,96,0.00,,,0.02,WUHU216HW,2013-02-01 06:18:00,
2013-01-31 22:23:00,35.8,34.7,27.65,SSW,203,0.9,1.3,96,0.00,,,0.02,WUHU216HW,2013-02-01 06:23:00,
2013-01-31 22:28:00,35.8,34.5,27.65,SSW,203,0.7,2.0,95,0.00,,,0.02,WUHU216HW,2013-02-01 06:28:00,
2013-01-31 22:33:00,35.8,34.5,27.65,SW,225,0.9,2.0,95,0.00,,,0.02,WUHU216HW,2013-02-01 06:33:00,
2013-01-31 22:38:00,35.8,34.5,27.65,SE,135,0.7,1.6,95,0.00,,,0.02,WUHU216HW,2013-02-01 06:38:00,
2013-01-31 22:43:00,35.8,34.5,27.66,ESE,113,1.3,1.6,95,0.00,,,0.02,WUHU216HW,2013-02-01 06:43:00,
2013-01-31 22:48:00,35.6,34.3,27.66,SSW,203,0.4,1.6,95,0.00,,,0.02,WUHU216HW,2013-02-01 06:48:00,
2013-01-31 22:53:00,35.6,34.3,27.66,SSE,158,0.9,0.9,95,0.00,,,0.02,WUHU216HW,2013-02-01 06:53:00,
2013-01-31 22:58:00,35.6,34.3,27.66,SE,135,0.2,0.9,95,0.00,,,0.02,WUHU216HW,2013-02-01 06:58:00,
2013-01-31 23:03:00,35.8,34.7,27.66,SW,225,1.3,2.0,96,0.00,,,0.02,WUHU216HW,2013-02-01 07:03:00,
2013-01-31 23:08:00,36.0,34.9,27.66,SW,225,0.7,2.0,96,0.00,,,0.02,WUHU216HW,2013-02-01 07:08:00,
2013-01-31 23:13:00,35.8,34.5,27.66,SSW,203,0.4,1.8,95,0.00,,,0.02,WUHU216HW,2013-02-01 07:13:00,
2013-01-31 23:18:00,35.8,34.5,27.66,SW,225,0.7,1.8,95,0.00,,,0.02,WUHU216HW,2013-02-01 07:18:00,
2013-01-31 23:23:00,35.8,34.5,27.66,SSE,158,0.0,1.8,95,0.00,,,0.02,WUHU216HW,2013-02-01 07:23:00,
2013-01-31 23:28:00,35.8,34.5,27.67,WSW,248,0.0,1.1,95,0.00,,,0.02,WUHU216HW,2013-02-01 07:28:00,
2013-01-31 23:33:00,35.6,34.3,27.67,SW,225,1.1,1.1,95,0.00,,,0.02,WUHU216HW,2013-02-01 07:33:00,
2013-01-31 23:38:00,35.6,34.3,27.67,SSW,203,0.7,1.1,95,0.00,,,0.02,WUHU216HW,2013-02-01 07:38:00,
2013-01-31 23:43:00,35.6,34.3,27.67,SSW,203,2.2,2.2,95,0.00,,,0.02,WUHU216HW,2013-02-01 07:43:00,
2013-01-31 23:48:00,35.8,34.5,27.67,SSW,203,1.1,2.2,95,0.00,,,0.02,WUHU216HW,2013-02-01 07:48:00,
2013-01-31 23:53:00,35.6,34.3,27.68,SSW,203,1.3,2.5,95,0.00,,,0.02,WUHU216HW,2013-02-01 07:53:00,
2013-01-31 23:58:00,35.6,34.3,27.68,WSW,248,2.7,2.7,95,0.00,,,0.02,WUHU216HW,2013-02-01 07:58:00,